Location: Poughquag
(41.6090°N, 73.6820°W)
Time: 12:46:41
(UTC-04:00)

Vanguard 1 Rocket - Pass Details

Date: 06 June 2020
Orbit: 653 x 4224 km, 34.3° (Epoch: 06 July)

Event Time Altitude Azimuth Distance (km) Brightness Sun altitude
Rises 05:36:08 0° 280° (W) 6,372 11.2 1.6°
Reaches altitude 10° 05:41:56 10° 270° (W) 4,674 10.5 2.6°
Maximum altitude 05:50:39 25° 222° (SW) 2,587 9.2 4.0°
Drops below altitude 10° 05:56:14 10° 169° (SSE) 2,865 9.8 4.9°
Sets 05:58:50 0° 154° (SSE) 3,522 10.4 5.4°
